Weather History for Kerrville, TX

Change the Weather History Date:

Tuesday, April 23, 2013

  Actual Average (KHDO) Record (KHDO)
Temperature  
Mean Temperature 60 °F -  
Max Temperature 72 °F 79 °F 95 °F (2011)
Min Temperature 48 °F 57 °F 45 °F (1998)
Degree Days  
Heating Degree Days 5    
Growing Degree Days 10 (Base 50)    
Moisture  
Dew Point 55 °F    
Average Humidity 77    
Maximum Humidity 91    
Minimum Humidity 55    
Precipitation  
Precipitation 0.00 in - - ()
Sea Level Pressure  
Sea Level Pressure 29.95 in    
Wind  
Wind Speed 12 mph (ESE)    
Max Wind Speed 20 mph    
Max Gust Speed 26 mph    
Visibility 10 miles    
Events Rain    
Averages and records for this station are not official NWS values.
T = Trace of Precipitation, MM = Missing Value Source: NWS Daily Summary

Daily Weather History Graph

Daily Weather History Graph

Search for Another Location

Airport:

Trip Planner

Search our weather history database for the weather conditions in past years. The results will help you decide how hot, cold, wet, or windy it might be!

Date:

Astronomy

Apr. 23, 2013 Rise Set
Actual Time 7:00 AM CDT 8:08 PM CDT
Civil Twilight 6:35 AM CDT 8:33 PM CDT
Nautical Twilight 6:06 AM CDT 9:03 PM CDT
Astronomical Twilight 5:35 AM CDT 9:33 PM CDT
Moon 6:12 PM CDT (4/23) 5:20 AM CDT (4/23)
Length of Visible Light 13h 57m
Length of Day
13h 07m
Waxing Gibbous, 94% of the Moon is Illuminated
Apr 23
Waxing Gibbous
Apr 25
Full
May 2
Last Quarter
May 9
New
May 17
First Quarter

Hourly Weather History & Observations

Time (CDT) Temp. Dew Point Humidity Pressure Visibility Wind Dir Wind Speed Gust Speed Precip Events Conditions
12:15 AM 68.9 °F 61.3 °F 77% 29.92 in 10.0 mi SSE 12.7 mph - N/A   Clear
12:35 AM 67.3 °F 61.2 °F 81% 29.92 in 10.0 mi SSE 17.3 mph 24.2 mph N/A   Clear
12:55 AM 66.2 °F 61.0 °F 83% 29.93 in 10.0 mi SSE 10.4 mph - N/A   Clear
1:15 AM 64.9 °F 60.1 °F 84% 29.93 in 10.0 mi SSE 10.4 mph - N/A   Scattered Clouds
1:35 AM 64.8 °F 59.9 °F 84% 29.92 in 10.0 mi SSE 13.8 mph - N/A   Mostly Cloudy
1:55 AM 64.8 °F 60.1 °F 85% 29.92 in 10.0 mi SSE 13.8 mph - N/A   Overcast
2:15 AM 64.6 °F 60.1 °F 85% 29.91 in 10.0 mi SSE 12.7 mph 19.6 mph N/A   Overcast
2:35 AM 64.4 °F 60.3 °F 86% 29.90 in 10.0 mi SSE 11.5 mph - N/A   Overcast
2:55 AM 64.0 °F 60.3 °F 87% 29.90 in 10.0 mi SSE 13.8 mph 19.6 mph N/A   Overcast
3:15 AM 63.9 °F 60.4 °F 89% 29.89 in 10.0 mi South 12.7 mph - N/A   Overcast
3:35 AM 63.7 °F 60.3 °F 89% 29.88 in 10.0 mi SSE 12.7 mph - N/A   Overcast
3:55 AM 63.7 °F 60.4 °F 89% 29.87 in 10.0 mi SSE 12.7 mph - N/A   Overcast
4:15 AM 63.7 °F 60.4 °F 89% 29.87 in 10.0 mi SSE 15.0 mph - N/A   Overcast
4:35 AM 63.7 °F 60.8 °F 90% 29.88 in 10.0 mi SSE 13.8 mph 18.4 mph N/A   Overcast
4:55 AM 63.5 °F 60.8 °F 91% 29.88 in 10.0 mi South 12.7 mph - N/A   Overcast
5:15 AM 63.7 °F 60.3 °F 89% 29.87 in 10.0 mi South 11.5 mph - N/A   Overcast
5:35 AM 63.7 °F 60.3 °F 89% 29.87 in 10.0 mi South 12.7 mph 20.7 mph N/A   Overcast
5:55 AM 63.7 °F 59.9 °F 87% 29.86 in 10.0 mi South 12.7 mph - N/A   Overcast
6:15 AM 63.7 °F 60.1 °F 88% 29.87 in 10.0 mi South 12.7 mph - N/A   Overcast
6:35 AM 63.7 °F 60.3 °F 89% 29.87 in 10.0 mi South 13.8 mph 20.7 mph N/A   Overcast
6:55 AM 63.7 °F 60.3 °F 89% 29.87 in 10.0 mi South 15.0 mph 20.7 mph N/A   Overcast
7:15 AM 63.7 °F 60.8 °F 90% 29.88 in 10.0 mi SSE 12.7 mph - N/A   Overcast
7:35 AM 63.7 °F 60.8 °F 90% 29.89 in 10.0 mi South 10.4 mph - N/A   Overcast
7:55 AM 63.7 °F 60.8 °F 90% 29.90 in 7.0 mi South 15.0 mph 20.7 mph N/A   Overcast
8:15 AM 63.7 °F 60.3 °F 89% 29.90 in 10.0 mi South 13.8 mph 19.6 mph N/A   Overcast
8:35 AM 64.4 °F 60.4 °F 87% 29.91 in 10.0 mi South 13.8 mph 18.4 mph N/A   Overcast
8:55 AM 64.4 °F 60.6 °F 88% 29.91 in 10.0 mi South 13.8 mph - N/A   Overcast
9:15 AM 66.0 °F 61.3 °F 85% 29.90 in 10.0 mi South 12.7 mph - N/A   Overcast
9:35 AM 66.6 °F 61.3 °F 83% 29.91 in 10.0 mi SSE 13.8 mph - N/A   Overcast
9:55 AM 66.2 °F 61.2 °F 84% 29.96 in 10.0 mi Calm Calm - N/A   Overcast
10:15 AM 66.6 °F 61.7 °F 84% 29.96 in 7.0 mi NNW 3.5 mph - N/A   Overcast
10:35 AM 66.2 °F 61.3 °F 84% 29.96 in 7.0 mi Calm Calm - N/A   Drizzle
10:55 AM 67.1 °F 62.6 °F 85% 29.96 in 7.0 mi SE 5.8 mph - N/A   Overcast
11:15 AM 66.7 °F 62.2 °F 85% 29.96 in 7.0 mi Calm Calm - N/A   Overcast
11:35 AM 67.5 °F 62.6 °F 84% 29.97 in 7.0 mi Calm Calm - N/A   Overcast
11:55 AM 68.9 °F 63.5 °F 83% 29.96 in 10.0 mi Calm Calm - N/A   Overcast
12:15 PM 68.9 °F 62.6 °F 80% 29.96 in 10.0 mi Calm Calm - N/A   Overcast
12:55 PM 68.9 °F 62.8 °F 81% 29.96 in 7.0 mi ENE 3.5 mph - N/A Rain Light Rain
1:15 PM 68.9 °F 63.9 °F 84% 29.96 in 7.0 mi ENE 3.5 mph - N/A   Light Drizzle
1:35 PM 68.4 °F 64.0 °F 86% 29.96 in 5.0 mi Calm Calm - N/A   Drizzle
1:55 PM 71.6 °F 65.3 °F 80% 29.95 in 10.0 mi Calm Calm - N/A   Overcast
2:15 PM 71.6 °F 64.0 °F 77% 29.94 in 10.0 mi Calm Calm - N/A   Overcast
2:35 PM 72.0 °F 63.1 °F 74% 29.94 in 10.0 mi East 3.5 mph - N/A   Overcast
2:55 PM 71.2 °F 62.4 °F 74% 29.95 in 10.0 mi NW 4.6 mph - N/A   Overcast
3:15 PM 66.9 °F 57.2 °F 71% 29.95 in 10.0 mi NW 10.4 mph - N/A   Overcast
3:35 PM 65.1 °F 52.9 °F 65% 29.95 in 10.0 mi North 11.5 mph - N/A   Overcast
3:55 PM 64.9 °F 50.4 °F 59% 29.95 in 10.0 mi NNW 16.1 mph - N/A   Overcast
4:15 PM 64.8 °F 48.2 °F 55% 29.94 in 10.0 mi NNW 15.0 mph - N/A   Overcast
4:35 PM 63.1 °F 46.8 °F 55% 29.94 in 10.0 mi NNW 13.8 mph - N/A   Overcast
4:55 PM 61.2 °F 46.0 °F 58% 29.94 in 10.0 mi NNW 16.1 mph 19.6 mph N/A   Overcast
5:15 PM 61.2 °F 45.9 °F 57% 29.94 in 10.0 mi North 15.0 mph 19.6 mph N/A   Mostly Cloudy
5:35 PM 61.2 °F 46.4 °F 58% 29.94 in 10.0 mi NNW 16.1 mph 20.7 mph N/A   Mostly Cloudy
5:55 PM 59.4 °F 45.1 °F 59% 29.95 in 10.0 mi NNW 12.7 mph - N/A   Overcast
6:15 PM 58.6 °F 44.6 °F 60% 29.96 in 10.0 mi NNW 12.7 mph - N/A   Overcast
6:35 PM 58.5 °F 44.6 °F 60% 29.96 in 10.0 mi NNW 13.8 mph - N/A   Overcast
6:55 PM 56.3 °F 42.8 °F 61% 29.97 in 10.0 mi NNW 13.8 mph - N/A   Overcast
7:15 PM 56.3 °F 43.3 °F 62% 29.97 in 10.0 mi NNW 12.7 mph - N/A   Overcast
7:35 PM 56.3 °F 43.7 °F 63% 29.97 in 10.0 mi North 13.8 mph 17.3 mph N/A   Overcast
7:55 PM 53.6 °F 41.4 °F 63% 29.98 in 10.0 mi NNW 10.4 mph - N/A   Overcast
8:15 PM 53.6 °F 42.3 °F 65% 29.98 in 10.0 mi North 13.8 mph 21.9 mph N/A   Overcast
8:35 PM 52.3 °F 41.0 °F 65% 30.00 in 10.0 mi North 13.8 mph - N/A   Overcast
8:55 PM 52.3 °F 40.8 °F 65% 30.01 in 10.0 mi North 9.2 mph 17.3 mph N/A   Overcast
9:15 PM 52.3 °F 40.6 °F 64% 30.03 in 10.0 mi NNW 12.7 mph - N/A   Overcast
9:35 PM 51.1 °F 40.1 °F 66% 30.05 in 10.0 mi North 12.7 mph - N/A   Overcast
9:55 PM 51.1 °F 39.9 °F 66% 30.06 in 10.0 mi North 15.0 mph - N/A   Overcast
10:15 PM 51.1 °F 39.7 °F 65% 30.07 in 10.0 mi North 12.7 mph - N/A   Overcast
10:35 PM 51.1 °F 39.4 °F 64% 30.09 in 10.0 mi North 15.0 mph 19.6 mph N/A   Overcast
10:55 PM 51.1 °F 39.7 °F 65% 30.09 in 10.0 mi North 15.0 mph 20.7 mph N/A   Overcast
11:15 PM 48.6 °F 38.3 °F 68% 30.10 in 10.0 mi NNW 15.0 mph - N/A   Overcast
11:35 PM 48.6 °F 39.0 °F 70% 30.11 in 10.0 mi North 19.6 mph 26.5 mph N/A   Overcast
11:55 PM 48.6 °F 38.8 °F 69% 30.12 in 10.0 mi North 13.8 mph 19.6 mph N/A   Overcast